Dewpoint
30 23 18 22 22 22 21 20 21 24 28 26 25 27 29 30 30 31 34 37 38 39 41 43 44 44 45 45 45 46 47 49 49 50 51 51 46 43 51 59 59 60 61 60
27 23 23 25 25 24 23 22 25 29 30 29 28 29 30 32 32 34 35 37 39 40 40 41 41 42 44 44 45 46 47 48 49 49 50 53 52 52 52 56 58 59 59 58
25 25 26 27 28 26 25 24 27 27 30 31 28 26 29 32 34 34 35 39 40 39 40 40 41 42 43 43 44 45 47 47 48 49 50 52 53 53 53 54 56 55 54 53
26 27 26 28 28 28 25 28 28 30 28 20 29 13 27 29 32 35 37 39 39 39 39 40 41 41 42 42 44 44 44 44 44 46 48 50 50 50 51 52 51 52 51 50
26 25 26 28 29 28 29 31 30 30 28 26 26 25 24 30 29 33 38 39 39 39 40 39 40 41 42 42 42 43 42 41 42 43 44 47 47 48 48 48 48 48 48 47
29 30 30 31 30 30 32 31 31 29 28 23 25 26 24 27 28 34 37 38 39 39 39 40 40 41 41 42 41 41 39 38 38 39 41 43 43 44 44 44 43 43 44 44
30 30 32 32 31 32 30 28 24 23 23 19 28 26 25 30 35 36 36 37 37 39 39 39 40 40 41 40 41 39 39 35 35 35 35 35 37 39 38 40 41 38 38 36
25 20 32 32 32 31 31 30 25 19 22 23 27 23 22 35 37 37 37 36 37 38 39 39 39 40 40 40 40 40 38 32 31 30 31 32 32 33 33 33 32 31 30 32
28 28 34 32 32 33 31 29 33 27 27 24 22 27 33 37 36 36 35 35 36 37 38 39 39 39 39 40 38 39 33 31 30 26 26 26 26 25 26 25 27 29 27 24
31 27 32 33 35 34 34 33 28 28 21 19 22 25 26 33 34 36 35 35 36 36 38 39 39 39 39 38 34 33 28 24 24 23 22 22 22 22 21 21 20 20 21 22
32 30 31 34 32 31 31 29 29 27 25 20 20 20 34 30 34 34 35 35 35 36 37 38 40 40 38 36 30 28 30 24 22 22 21 21 21 21 20 20 20 20 20 20
32 31 28 28 33 33 31 28 28 23 25 25 24 22 35 34 35 35 35 35 36 36 37 39 39 38 37 32 27 25 27 25 23 22 21 20 20 20 20 21 21 21 20 20
32 30 24 25 26 28 28 29 29 26 26 22 22 21 36 35 35 36 35 35 36 37 38 39 39 38 36 32 25 22 21 21 22 21 21 21 21 21 21 21 22 21 20 19
33 30 26 20 22 26 26 27 28 27 23 21 23 22 31 34 33 34 35 35 36 37 38 38 38 38 36 30 24 22 20 20 20 20 20 21 22 22 22 23 22 20 19 19
33 28 28 28 28 28 26 25 25 27 25 22 19 21 22 28 32 33 35 35 36 36 37 38 38 37 33 31 26 22 20 19 20 20 20 20 21 22 22 19 19 19 20 20
32 23 28 25 25 25 24 24 24 23 26 25 25 23 25 25 26 31 34 35 35 36 37 37 38 35 32 31 28 23 20 20 21 20 20 21 21 20 19 19 19 19 19 19
29 27 24 14 24 23 9 15 21 22 23 24 23 23 25 24 26 29 34 35 35 36 37 36 35 33 32 32 29 25 23 22 21 20 21 21 20 19 19 19 19 19 19 19
27 26 25 21 23 1 5 18 19 19 20 23 22 23 23 24 26 31 35 35 35 36 36 36 34 32 32 32 29 26 24 22 21 21 22 20 20 19 20 20 19 19 19 20
29 27 23 20 20 16 12 19 16 16 10 20 22 23 23 24 29 29 32 34 34 35 35 35 33 32 32 30 26 24 23 23 23 22 19 20 20 19 19 18 18 18 19 20
28 29 25 24 18 1 4 15 22 20 2 14 20 21 22 29 24 24 29 32 32 33 33 33 32 32 30 27 25 23 22 23 21 19 19 19 19 18 17 17 17 18 19 20
26 27 25 25 23 21 22 18 23 0 -10 17 20 20 24 24 24 28 32 32 32 32 32 32 31 30 27 24 23 22 23 21 19 19 17 17 17 16 16 16 17 18 18 18
17 20 23 25 23 11 23 23 12 7 21 20 21 22 23 26 31 32 32 32 32 32 33 31 29 26 23 23 23 22 20 19 17 15 14 14 15 15 15 16 17 17 17 17
13 18 19 22 18 22 24 19 22 21 19 20 24 25 28 29 31 32 32 32 32 32 32 30 27 24 24 23 21 19 15 15 14 13 14 15 15 15 16 17 17 17 17 16
15 17 15 14 11 16 19 22 24 25 23 24 25 26 27 27 29 31 33 33 32 32 32 29 26 25 23 21 17 14 15 14 14 14 15 15 15 17 17 18 17 16 16 17
18 19 17 16 16 17 17 18 18 19 22 25 26 26 25 26 27 29 30 33 33 32 31 28 26 25 23 18 15 15 14 14 14 15 16 16 17 18 18 17 16 17 18 19
23 19 18 16 16 15 16 20 22 21 22 23 24 24 26 27 27 28 30 33 33 32 30 27 25 24 20 16 15 14 15 16 16 16 17 17 19 19 17 16 16 19 20 21
Wind_Speed
2 7 7 8 6 3 3 5 4 1 4 4 8 16 19 16 14 7 7 8 6 6 6 10 13 15 15 15 17 18 18 17 16 17 17 16 14 15 14 15 18 20 9 9
6 8 6 8 8 6 5 3 2 2 3 4 9 20 22 14 6 11 8 6 8 5 10 12 14 15 15 15 16 17 16 17 16 14 16 11 13 11 11 7 10 14 11 9
8 5 5 7 6 4 4 3 4 3 9 4 13 8 3 3 8 8 6 11 9 9 9 11 12 12 12 14 15 17 16 16 16 18 15 13 9 12 10 13 12 14 15 13
8 1 6 7 5 3 5 6 5 5 9 3 7 8 7 7 8 8 8 8 6 5 4 7 10 11 12 13 13 13 14 16 15 17 15 12 9 8 8 8 13 10 14 15
2 5 4 4 2 2 3 3 4 5 5 6 2 2 7 7 9 10 5 5 4 3 4 6 6 8 8 10 11 12 14 16 17 17 18 15 14 10 10 8 11 14 13 15
6 2 2 2 5 5 3 4 2 1 3 3 6 5 6 7 8 9 5 1 1 2 3 5 5 5 7 9 11 10 13 14 15 16 16 15 14 14 12 11 9 12 9 10
3 3 2 1 6 5 3 3 1 1 3 4 1 7 14 7 3 3 2 3 4 2 3 4 5 6 7 9 10 9 11 13 13 12 13 15 16 13 10 9 10 13 13 15
4 1 4 5 2 5 2 1 1 3 2 3 2 8 4 4 5 5 3 1 4 2 3 3 4 4 5 5 6 7 8 11 13 13 13 12 12 12 11 12 14 14 13 11
5 0 2 6 3 5 3 2 1 1 3 3 5 6 4 4 4 4 4 2 4 5 6 5 7 6 6 5 5 3 4 4 5 6 7 9 10 12 11 12 9 6 8 9
4 6 7 4 2 4 2 6 2 2 2 4 7 7 12 6 11 9 8 7 6 5 7 6 8 8 8 7 3 3 4 5 6 6 8 8 8 7 8 9 11 11 10 11
1 3 3 8 9 13 7 4 5 2 2 2 6 8 6 6 9 11 10 8 7 8 9 9 10 9 9 8 3 1 2 3 5 6 5 7 7 7 8 9 10 11 11 12
2 2 6 11 7 10 9 8 8 4 5 6 3 11 9 7 8 8 9 10 9 11 12 13 12 11 10 10 7 5 4 4 4 5 6 5 5 7 9 10 11 11 12 12
3 3 4 1 3 2 6 10 10 4 3 10 6 8 4 5 6 10 11 12 13 14 13 13 14 16 16 12 10 8 6 5 3 3 5 5 6 8 9 10 10 11 12 11
2 3 7 8 2 3 5 9 14 14 7 6 18 16 8 12 13 13 16 15 16 17 17 17 19 20 17 15 12 8 7 5 3 2 3 3 6 7 7 8 10 11 11 11
2 4 5 12 16 14 16 17 16 24 23 14 8 15 13 10 16 21 23 18 19 22 22 22 22 21 18 17 14 11 9 6 4 3 3 4 4 5 7 9 10 10 11 10
2 4 5 12 11 8 15 20 24 25 24 28 27 40 22 30 19 18 23 22 24 24 24 23 23 22 21 19 17 13 11 7 4 3 4 4 3 4 6 9 11 12 13 13
5 2 4 6 9 14 17 15 27 18 18 32 29 39 14 19 13 18 23 25 27 26 25 23 23 22 21 18 18 16 12 8 5 4 5 3 2 6 9 10 11 12 13 14
3 2 2 8 10 4 4 6 10 24 21 30 25 21 16 17 15 15 21 26 27 25 24 24 22 20 19 16 17 14 12 9 7 6 3 1 4 7 8 9 11 12 12 13
7 3 3 4 5 16 10 4 7 9 12 27 32 30 22 13 5 13 14 20 27 25 24 24 21 17 17 20 17 14 10 9 7 4 2 2 5 7 9 11 12 11 11 12
2 5 5 1 4 7 4 3 3 3 14 7 17 21 18 10 14 25 6 11 11 9 9 13 14 14 20 17 16 14 11 8 5 4 2 4 5 7 10 10 10 7 11 13
4 5 17 13 7 14 13 5 4 2 4 4 4 6 8 13 17 2 4 4 8 9 12 13 16 20 18 17 14 11 9 7 5 3 3 4 6 8 9 8 8 8 10 10
12 10 9 7 8 11 10 8 9 5 2 4 5 6 8 11 7 8 7 7 9 12 13 13 15 13 14 13 11 9 8 6 6 3 2 5 6 6 7 9 9 9 9 11
8 11 6 16 13 10 16 9 14 4 7 6 6 7 7 8 10 11 12 11 11 12 12 12 15 15 11 10 9 9 7 8 4 1 4 5 7 8 8 7 10 9 8 9
5 10 10 2 14 25 24 25 20 11 15 13 11 12 8 12 11 11 11 12 13 14 14 12 15 15 14 11 10 9 11 7 4 2 4 6 8 9 7 8 7 8 9 10
11 4 8 18 33 20 22 18 17 19 19 17 15 11 12 10 14 12 11 15 17 17 14 16 17 16 15 13 13 11 10 6 2 2 4 6 5 7 8 8 7 9 9 8
18 20 18 21 27 18 17 6 2 3 6 7 7 8 7 6 12 12 14 14 17 18 17 18 17 15 15 18 15 12 9 7 4 4 4 5 6 6 8 9 11 8 10 12
Wind_Direction
56 98 134 128 93 98 91 104 119 337 123 285 263 279 282 268 278 158 131 117 94 78 42 39 30 14 356 359 349 347 340 341 345 342 333 329 313 283 279 260 253 254 260 282
77 99 93 93 69 76 67 87 61 103 5 306 295 290 291 274 238 157 140 123 99 64 23 21 13 3 353 351 348 341 339 341 346 341 323 302 299 301 283 303 31 36 43 52
99 125 108 83 78 97 80 58 58 21 336 339 346 293 187 102 140 142 116 108 86 63 28 13 2 1 353 354 347 343 344 345 357 349 332 328 339 358 5 357 56 38 45 31
81 109 88 88 75 58 111 26 64 11 19 317 22 290 280 209 200 190 120 99 81 49 44 31 358 352 355 346 342 353 351 355 7 1 351 9 29 21 9 34 43 42 46 35
93 131 117 85 94 44 111 28 5 21 359 8 317 246 278 197 221 183 156 120 87 43 20 36 17 1 348 348 350 358 1 5 6 12 10 10 39 24 8 17 55 58 39 45
99 137 61 62 87 56 16 44 22 103 44 282 222 195 277 206 221 178 162 115 28 5 28 54 36 12 346 357 359 5 9 4 4 20 13 20 29 32 28 23 37 56 63 43
129 109 115 105 124 87 69 50 59 295 232 238 128 193 261 237 201 172 240 288 320 309 352 26 1 5 344 0 359 7 9 12 4 13 28 28 30 29 30 22 23 33 27 38
126 156 183 173 216 164 105 214 227 248 273 287 235 242 264 177 171 167 176 291 351 352 331 337 326 308 312 334 338 352 9 14 13 14 14 23 26 22 20 23 29 32 31 12
126 26 134 187 155 147 157 195 125 254 261 298 242 271 252 181 236 213 240 283 272 267 271 268 280 273 273 274 298 303 20 7 342 9 23 29 29 29 25 28 25 7 20 20
154 112 208 183 58 252 184 156 169 133 339 291 292 270 244 254 257 235 236 239 236 264 263 248 250 259 248 248 284 32 25 11 353 9 22 30 32 26 25 29 27 21 17 13
114 153 152 140 208 181 180 211 206 220 213 266 293 265 214 231 235 235 229 218 214 229 243 256 241 244 259 241 251 244 302 325 340 345 344 10 10 9 22 30 24 18 14 9
204 144 178 208 227 182 188 193 179 174 205 221 256 276 195 214 217 219 217 209 204 218 230 239 245 253 256 242 237 231 240 254 301 325 345 355 12 18 17 11 6 5 2 359
184 200 138 56 331 305 221 211 206 167 135 227 195 255 175 186 209 218 218 213 204 217 231 230 244 254 249 246 221 214 214 216 251 320 343 360 11 7 360 356 356 357 356 354
52 244 222 217 183 130 215 217 212 197 202 230 229 258 242 238 236 228 223 218 212 213 220 232 243 246 244 219 204 206 212 213 231 300 325 338 348 346 344 346 354 354 349 346
174 258 257 263 269 266 256 248 229 214 218 224 257 251 256 243 239 234 224 214 209 218 225 231 238 239 228 213 206 202 206 211 221 271 302 318 330 347 356 353 346 342 343 341
184 281 330 289 291 277 264 250 237 240 234 242 254 273 266 268 264 236 217 207 214 219 225 233 236 231 218 209 205 199 196 200 201 256 278 294 318 334 337 338 341 343 345 347
183 229 349 280 327 318 281 245 226 224 218 223 235 245 249 269 257 236 213 207 215 220 224 230 229 220 214 204 194 193 193 183 202 243 273 283 329 337 337 336 339 341 341 343
177 179 219 284 334 264 232 219 218 213 233 220 238 246 228 234 232 225 215 211 218 221 222 225 223 214 203 188 180 170 166 178 200 224 237 299 343 325 327 337 341 338 338 338
195 167 257 265 274 294 297 201 195 201 276 225 227 242 244 246 229 245 208 215 224 222 222 223 213 197 179 168 159 159 170 188 204 221 211 308 320 321 330 332 327 325 327 328
148 195 202 195 257 255 242 208 173 119 281 205 218 236 228 163 241 258 221 259 217 187 190 191 174 160 158 161 156 164 181 189 199 198 245 293 310 319 316 312 316 318 321 317
167 216 225 233 266 278 258 209 144 233 291 180 187 207 184 206 235 275 156 93 146 145 142 138 147 158 162 157 156 169 175 194 192 199 263 301 311 312 309 319 318 318 324 325
193 184 200 187 223 276 180 132 196 230 256 212 200 212 218 244 241 205 193 176 160 155 152 154 150 153 154 154 157 163 180 188 182 207 286 309 314 316 319 316 317 324 330 332
234 203 198 199 225 241 199 232 225 229 247 247 250 256 268 272 247 227 223 203 190 180 170 167 158 153 156 162 164 170 178 173 188 251 310 321 321 318 325 329 330 334 337 329
248 212 238 278 266 255 254 252 259 249 246 248 242 242 242 265 273 270 243 219 202 194 191 172 166 173 180 175 170 180 179 177 175 255 318 320 318 319 341 338 333 326 326 320
220 219 231 254 274 282 273 272 269 263 257 258 248 246 254 266 270 263 257 224 209 197 188 182 186 188 190 181 185 185 181 173 184 272 298 310 316 326 328 325 315 317 309 297
219 239 230 250 257 261 273 292 317 311 292 250 241 268 272 272 278 276 264 233 201 193 185 187 191 189 187 185 185 182 175 169 189 256 278 290 305 317 319 315 313 306 307 315